Location: Auckland
(36.8670°S, 174.7670°E)
Time: 10:50:34
(UTC+12:00)

Tiros 1 despin weight - Pass Details

Date: 22 July 2019
Orbit: 594 x 642 km, 48.2° (Epoch: 19 August)

Event Time Altitude Azimuth Distance (km) Brightness Sun altitude
Rises 23:06:47 0° 314° (NW) 2,831 - -65.8°
Reaches altitude 10° 23:09:05 10° 316° (NW) 1,932 - -66.2°
Maximum altitude 23:13:28 67° 38° (NE) 652 - -66.9°
Drops below altitude 10° 23:17:54 10° 120° (ESE) 1,951 - -67.5°
Sets 23:20:14 0° 123° (ESE) 2,862 - -67.9°
